• In Belgium
  • List of Countries
  • For 7 days
  • Water Temperature
  • Satellite Maps
  • Weather Map
  • Weather Widgets
  • user-avatar
    Login

    Hourly Weather Arto

    Today, 23 July, Monday

    Time Temperature Precipitation Wind Pressure Humidity
    00:00 +15°C° 0 mm 2 mps 677 mmHg 77%
    01:00 +15°C° 0 mm 2 mps 677 mmHg 77%
    02:00 +14°C° 0 mm 2 mps 677 mmHg 76%
    03:00 +14°C° 0 mm 1 mps 677 mmHg 75%
    04:00 +15°C° 0 mm 1 mps 677 mmHg 73%
    05:00 +15°C° 0 mm 1 mps 677 mmHg 71%
    06:00 +16°C° 0 mm 1 mps 677 mmHg 69%
    07:00 +19°C° 0 mm 1 mps 678 mmHg 61%
    08:00 +22°C° 0 mm 1 mps 678 mmHg 52%
    09:00 +24°C° 0 mm 1 mps 679 mmHg 44%
    10:00 +26°C° 0 mm 1 mps 679 mmHg 40%
    11:00 +27°C° 0 mm 2 mps 679 mmHg 37%
    12:00 +28°C° 0 mm 2 mps 679 mmHg 34%
    13:00 +29°C° 0 mm 2 mps 678 mmHg 33%
    14:00 +29°C° 0 mm 2 mps 678 mmHg 32%
    15:00 +30°C° 0 mm 2 mps 678 mmHg 31%
    16:00 +29°C° 0 mm 2 mps 677 mmHg 34%
    17:00 +29°C° 0 mm 1 mps 677 mmHg 37%
    18:00 +28°C° 0 mm 1 mps 677 mmHg 40%
    19:00 +26°C° 0 mm 1 mps 677 mmHg 45%
    20:00 +24°C° 0 mm 1 mps 676 mmHg 50%
    21:00 +22°C° 0 mm 1 mps 676 mmHg 56%
    22:00 +20°C° 0.1 mm 2 mps 676 mmHg 57%
    23:00 +20°C° 0.1 mm 2 mps 676 mmHg 58%

    Tomorrow, 24 July, Tuesday

    Time Temperature Precipitation Wind Pressure Humidity
    00:00 +19°C° 0.1 mm 2 mps 676 mmHg 60%
    01:00 +19°C° 0.2 mm 2 mps 675 mmHg 62%
    02:00 +19°C° 0.2 mm 2 mps 675 mmHg 64%
    03:00 +18°C° 0.2 mm 2 mps 675 mmHg 66%
    04:00 +18°C° 0.3 mm 2 mps 675 mmHg 66%
    05:00 +19°C° 0.3 mm 2 mps 675 mmHg 66%
    06:00 +20°C° 0.3 mm 1 mps 675 mmHg 66%
    07:00 +22°C° 0 mm 1 mps 676 mmHg 59%
    08:00 +24°C° 0 mm 1 mps 676 mmHg 53%
    09:00 +26°C° 0 mm 2 mps 677 mmHg 46%
    10:00 +27°C° 0.1 mm 2 mps 677 mmHg 43%
    11:00 +28°C° 0.1 mm 2 mps 677 mmHg 41%
    12:00 +30°C° 0.1 mm 2 mps 677 mmHg 38%
    13:00 +30°C° 0 mm 2 mps 677 mmHg 37%
    14:00 +30°C° 0 mm 2 mps 677 mmHg 35%
    15:00 +31°C° 0 mm 2 mps 677 mmHg 33%
    16:00 +30°C° 0.1 mm 2 mps 677 mmHg 37%
    17:00 +29°C° 0.1 mm 2 mps 677 mmHg 41%
    18:00 +28°C° 0.1 mm 2 mps 676 mmHg 45%
    19:00 +26°C° 0.1 mm 2 mps 676 mmHg 52%
    20:00 +24°C° 0.1 mm 2 mps 676 mmHg 58%
    21:00 +21°C° 0.1 mm 2 mps 676 mmHg 65%
    22:00 +20°C° 0 mm 2 mps 676 mmHg 67%
    23:00 +20°C° 0 mm 2 mps 676 mmHg 68%

    Day after tomorrow, 25 July, Wednesday

    Time Temperature Precipitation Wind Pressure Humidity
    00:00 +19°C° 0 mm 2 mps 676 mmHg 70%
    01:00 +19°C° 0 mm 2 mps 676 mmHg 69%
    02:00 +18°C° 0 mm 2 mps 676 mmHg 69%
    03:00 +19°C° 0 mm 1 mps 676 mmHg 69%
    04:00 +19°C° 0 mm 1 mps 676 mmHg 68%
    05:00 +20°C° 0 mm 1 mps 676 mmHg 68%
    06:00 +20°C° 0 mm 1 mps 677 mmHg 68%
    07:00 +22°C° 0 mm 1 mps 677 mmHg 61%
    08:00 +24°C° 0 mm 1 mps 678 mmHg 55%
    09:00 +26°C° 0 mm 2 mps 678 mmHg 49%
    10:00 +27°C° 0.1 mm 2 mps 678 mmHg 46%
    11:00 +28°C° 0.1 mm 2 mps 678 mmHg 42%
    12:00 +29°C° 0.1 mm 2 mps 678 mmHg 39%
    13:00 +30°C° 0.2 mm 2 mps 678 mmHg 38%
    14:00 +30°C° 0.2 mm 2 mps 678 mmHg 37%
    15:00 +30°C° 0.2 mm 2 mps 678 mmHg 36%
    16:00 +30°C° 0.3 mm 2 mps 678 mmHg 39%
    17:00 +29°C° 0.3 mm 2 mps 677 mmHg 42%
    18:00 +28°C° 0.3 mm 1 mps 677 mmHg 45%
    19:00 +26°C° 0 mm 2 mps 677 mmHg 51%
    20:00 +24°C° 0 mm 2 mps 677 mmHg 57%
    21:00 +21°C° 0 mm 2 mps 677 mmHg 63%
    22:00 +20°C° 0 mm 2 mps 677 mmHg 64%
    23:00 +21°C° 0 mm 1 mps 676 mmHg 65%

    26 July, Thursday

    Time Temperature Precipitation Wind Pressure Humidity
    00:00 +20°C° 0 mm 1 mps 676 mmHg 66%
    01:00 +20°C° 0 mm 1 mps 676 mmHg 65%
    02:00 +19°C° 0 mm 1 mps 676 mmHg 65%
    03:00 +19°C° 0 mm 1 mps 676 mmHg 64%
    04:00 +20°C° 0 mm 1 mps 676 mmHg 63%
    05:00 +20°C° 0 mm 1 mps 676 mmHg 62%
    06:00 +20°C° 0 mm 1 mps 676 mmHg 61%
    07:00 +23°C° 0 mm 1 mps 677 mmHg 54%
    08:00 +25°C° 0 mm 1 mps 677 mmHg 47%
    09:00 +27°C° 0 mm 1 mps 678 mmHg 39%
    10:00 +28°C° 0 mm 2 mps 678 mmHg 37%
    11:00 +29°C° 0 mm 2 mps 678 mmHg 35%
    12:00 +31°C° 0 mm 2 mps 678 mmHg 32%
    13:00 +31°C° 0.1 mm 2 mps 678 mmHg 32%
    14:00 +31°C° 0.1 mm 2 mps 678 mmHg 31%
    15:00 +31°C° 0.1 mm 2 mps 678 mmHg 31%
    16:00 +31°C° 0.2 mm 2 mps 677 mmHg 34%
    17:00 +30°C° 0.2 mm 1 mps 677 mmHg 38%
    18:00 +29°C° 0.2 mm 1 mps 677 mmHg 41%
    19:00 +27°C° 0.1 mm 1 mps 677 mmHg 48%
    20:00 +25°C° 0.1 mm 1 mps 677 mmHg 55%
    21:00 +21°C° 0.1 mm 2 mps 677 mmHg 62%
    22:00 +21°C° 0 mm 2 mps 677 mmHg 64%
    23:00 +21°C° 0 mm 1 mps 677 mmHg 65%

    27 July, Friday

    Time Temperature Precipitation Wind Pressure Humidity
    00:00 +20°C° 0 mm 1 mps 677 mmHg 67%
    01:00 +20°C° 0 mm 1 mps 677 mmHg 67%
    02:00 +20°C° 0 mm 1 mps 676 mmHg 68%
    03:00 +19°C° 0 mm 1 mps 676 mmHg 68%
    04:00 +20°C° 0 mm 1 mps 676 mmHg 68%
    05:00 +20°C° 0 mm 1 mps 677 mmHg 67%
    06:00 +20°C° 0 mm 1 mps 677 mmHg 66%
    07:00 +22°C° 0 mm 1 mps 677 mmHg 59%
    08:00 +24°C° 0 mm 1 mps 678 mmHg 52%
    09:00 +27°C° 0 mm 2 mps 678 mmHg 44%
    10:00 +28°C° 0 mm 2 mps 678 mmHg 41%
    11:00 +29°C° 0 mm 2 mps 678 mmHg 38%
    12:00 +30°C° 0 mm 2 mps 678 mmHg 35%
    13:00 +30°C° 0 mm 2 mps 678 mmHg 35%
    14:00 +31°C° 0 mm 3 mps 678 mmHg 35%
    15:00 +31°C° 0 mm 3 mps 678 mmHg 35%
    16:00 +30°C° 0 mm 3 mps 678 mmHg 39%
    17:00 +29°C° 0 mm 3 mps 678 mmHg 43%
    18:00 +28°C° 0 mm 3 mps 678 mmHg 47%
    19:00 +26°C° 0 mm 2 mps 678 mmHg 53%
    20:00 +23°C° 0 mm 2 mps 678 mmHg 58%
    21:00 +20°C° 0 mm 2 mps 678 mmHg 64%
    22:00 +20°C° 0 mm 2 mps 678 mmHg 65%
    23:00 +19°C° 0 mm 2 mps 678 mmHg 66%

    28 July, Saturday

    Time Temperature Precipitation Wind Pressure Humidity
    00:00 +19°C° 0 mm 2 mps 678 mmHg 67%
    01:00 +18°C° 0 mm 2 mps 678 mmHg 67%
    02:00 +18°C° 0 mm 2 mps 678 mmHg 68%
    03:00 +18°C° 0 mm 2 mps 677 mmHg 68%
    04:00 +18°C° 0 mm 2 mps 677 mmHg 68%
    05:00 +19°C° 0 mm 1 mps 677 mmHg 67%
    06:00 +19°C° 0 mm 1 mps 678 mmHg 66%
    07:00 +21°C° 0 mm 2 mps 678 mmHg 59%
    08:00 +24°C° 0 mm 2 mps 679 mmHg 52%
    09:00 +26°C° 0 mm 2 mps 679 mmHg 45%
    10:00 +27°C° 0 mm 2 mps 679 mmHg 42%
    11:00 +29°C° 0 mm 2 mps 679 mmHg 39%
    12:00 +30°C° 0 mm 3 mps 679 mmHg 37%
    13:00 +30°C° 0 mm 3 mps 679 mmHg 36%
    14:00 +31°C° 0 mm 3 mps 679 mmHg 36%
    15:00 +31°C° 0 mm 3 mps 679 mmHg 35%
    16:00 +30°C° 0 mm 2 mps 679 mmHg 38%
    17:00 +29°C° 0 mm 2 mps 679 mmHg 41%
    18:00 +29°C° 0 mm 2 mps 679 mmHg 44%
    19:00 +26°C° 0 mm 2 mps 678 mmHg 51%
    20:00 +24°C° 0 mm 2 mps 678 mmHg 57%
    21:00 +21°C° 0 mm 2 mps 678 mmHg 64%
    22:00 +20°C° 0 mm 2 mps 678 mmHg 64%
    23:00 +20°C° 0 mm 2 mps 678 mmHg 64%
    Show more